Wind_Speed
77 64 56 63 69 72 77 76 45 21 16 15 20 20 42 49 41 56 58 60 54 59 51 57 52 50 50 48 47 53 53 47 50 56 52 57 56 55 53 53 52 49 46 44 43
79 65 56 62 67 69 75 73 64 29 15 13 11 20 31 47 28 50 60 57 58 62 54 55 52 48 51 47 47 46 47 43 46 60 48 57 56 58 54 55 55 53 49 46 44
78 63 56 61 66 69 73 72 68 43 18 13 12 15 16 47 37 45 54 57 56 59 60 55 53 50 47 47 48 48 46 44 44 59 59 49 60 60 57 57 57 55 51 47 46
77 63 58 60 65 68 71 71 67 62 25 16 16 9 14 40 45 43 53 60 53 58 54 47 53 49 47 47 46 49 46 44 41 43 48 49 61 62 60 58 58 55 51 47 48
78 65 53 57 62 65 69 68 68 66 51 15 11 8 9 23 53 50 51 60 55 54 56 51 49 50 45 46 46 46 47 44 38 39 50 48 59 61 61 62 58 56 54 48 46
76 65 56 53 60 62 66 67 69 66 55 31 10 7 5 13 49 51 51 56 51 48 55 50 50 51 46 44 44 48 46 45 44 41 38 48 55 62 59 62 62 56 53 51 46
76 64 53 51 56 61 63 66 68 66 57 39 20 11 5 7 28 52 49 53 47 45 42 45 49 52 47 45 44 46 44 44 45 44 42 41 47 62 59 59 60 60 55 53 51
73 65 52 49 51 58 62 64 65 65 58 43 25 18 11 4 26 39 50 49 42 44 44 43 46 49 48 46 44 38 44 43 46 53 42 39 46 58 56 60 61 60 60 56 56
75 69 58 49 49 51 58 61 61 64 59 45 25 19 8 9 28 34 49 47 47 49 45 36 45 49 48 46 44 42 43 42 48 52 47 42 45 58 55 57 60 59 58 59 57
73 73 62 49 48 48 50 58 58 61 59 53 26 15 9 12 25 30 46 44 45 43 41 41 43 50 48 46 44 42 42 39 43 46 46 46 42 49 70 48 59 58 55 57 61
71 71 66 52 47 47 47 52 55 56 58 56 39 14 8 17 23 28 41 40 43 42 39 37 39 45 45 43 41 38 40 37 36 36 42 51 51 52 65 69 53 54 50 47 54
69 70 66 55 48 45 44 45 52 51 54 53 47 18 8 15 24 30 34 40 40 40 46 37 37 41 41 40 37 35 37 39 33 32 33 38 46 55 47 63 41 43 55 51 54
64 69 67 59 50 45 44 42 45 49 51 51 48 24 10 17 26 29 34 38 36 45 37 32 40 32 38 38 34 31 31 36 34 33 31 31 33 42 52 44 63 39 51 55 56
60 66 67 63 55 46 43 41 41 42 45 44 44 34 13 22 27 27 35 34 42 38 40 31 36 27 28 33 34 31 30 32 38 38 35 29 37 32 34 44 49 54 45 50 53
55 61 63 63 59 46 42 40 39 37 38 38 38 41 17 19 25 24 33 34 46 41 34 26 32 28 25 28 33 31 31 32 31 34 36 39 37 30 32 38 34 35 44 44 43
52 56 60 61 59 55 43 39 35 33 31 32 31 34 23 16 22 25 30 36 44 37 25 29 27 29 23 28 31 32 31 31 29 29 27 24 27 24 33 38 35 37 38 41 43
48 52 58 59 58 58 50 42 35 30 29 27 24 26 25 14 17 27 29 38 43 37 32 30 31 22 20 26 30 30 30 29 29 29 27 25 24 12 26 32 32 31 34 41 45
44 50 53 55 59 56 57 48 36 30 26 24 18 16 19 12 16 25 27 42 37 34 28 28 27 25 19 19 20 23 27 29 31 31 29 25 24 23 17 19 27 35 38 38 42
40 47 51 54 57 57 56 55 41 27 22 21 16 12 11 12 15 22 23 29 30 33 22 26 23 23 25 24 22 23 30 31 30 29 28 27 28 24 23 27 31 34 39 40 41
41 45 51 52 54 56 55 56 43 28 20 17 14 9 5 7 9 24 24 24 23 23 27 30 26 27 27 26 30 28 25 30 31 33 33 29 27 27 24 24 30 35 39 41 38
44 45 50 52 53 56 56 56 51 41 21 16 11 9 7 6 7 14 23 22 20 19 18 24 23 21 27 30 28 30 28 31 33 35 33 30 27 23 24 22 29 34 39 42 41
43 44 49 51 52 58 57 55 52 48 31 18 14 10 11 11 13 12 15 23 25 24 22 24 25 23 28 30 29 33 37 35 35 33 29 26 25 23 23 22 27 29 33 38 35
44 44 48 52 53 58 56 52 50 48 40 34 22 17 17 16 17 18 20 19 24 25 24 26 30 28 29 32 31 30 37 35 31 29 28 27 27 26 24 25 24 20 26 32 28
43 46 48 51 54 54 57 51 47 47 43 39 38 26 21 21 23 22 20 23 23 26 25 24 29 28 27 27 27 26 26 35 40 40 38 29 27 18 18 21 22 21 25 28 31
43 46 48 51 54 55 56 54 51 49 51 42 35 26 23 25 26 26 25 24 26 28 26 25 26 26 27 27 27 24 26 29 33 35 35 31 29 24 23 27 27 26 27 26 28
42 45 47 52 55 56 57 57 54 52 55 52 40 31 25 26 31 30 30 27 26 26 28 27 27 31 30 30 28 26 25 26 28 29 35 33 27 26 30 30 27 28 30 32 33
41 43 46 50 53 55 57 57 57 59 58 60 51 41 31 26 34 34 34 32 29 27 27 28 27 27 27 28 29 30 21 26 27 26 27 30 23 27 31 28 27 28 29 29 29
Wind_Direction
359 357 354 358 3 5 8 12 3 342 327 324 241 228 217 211 223 216 210 215 211 208 206 204 211 212 214 216 216 219 218 221 222 214 215 215 212 214 218 220 221 220 217 217 218
359 359 354 359 4 6 8 11 14 357 343 333 289 243 213 197 199 217 208 213 211 207 200 205 206 210 212 215 214 214 217 221 221 212 215 216 209 212 218 220 221 220 218 215 218
360 359 355 2 5 7 9 12 12 8 336 323 305 264 232 200 193 216 207 206 216 208 199 201 205 207 212 211 216 213 215 219 223 216 221 219 209 211 217 220 220 220 220 218 216
360 358 357 3 7 9 9 12 13 13 351 301 307 301 246 199 201 211 203 205 210 206 197 200 199 207 208 214 214 216 213 215 217 220 218 217 215 214 213 221 222 220 221 220 223
360 358 357 1 5 8 11 11 12 13 15 342 300 289 232 212 200 207 203 203 205 208 193 201 201 205 208 215 213 215 212 213 214 214 216 218 212 213 212 220 223 222 221 219 223
0 359 356 1 4 6 11 11 11 12 13 15 358 303 262 226 202 199 200 201 201 206 192 196 202 204 205 211 215 216 213 213 212 206 207 219 213 216 217 221 224 223 224 222 221
1 0 352 355 1 5 8 11 11 12 10 13 23 13 336 228 197 197 195 197 199 200 202 194 201 201 202 210 213 216 217 214 213 210 212 216 217 211 217 223 225 227 225 225 223
2 2 355 349 354 2 5 8 9 12 11 8 13 22 12 159 188 191 187 191 194 195 200 197 202 200 204 209 211 216 216 212 211 213 207 215 211 206 216 224 225 227 226 225 227
1 5 1 349 344 354 2 5 6 11 13 11 8 15 37 145 158 180 182 185 187 189 197 199 204 201 204 207 209 215 216 209 213 219 225 205 208 208 212 218 226 231 230 227 226
358 3 4 355 349 348 357 3 5 9 14 14 16 25 59 156 164 173 179 181 191 187 191 198 201 203 204 208 212 214 214 213 217 222 228 226 220 210 205 212 225 229 230 231 226
355 1 4 2 354 351 356 2 4 6 15 13 17 32 77 156 166 158 177 171 182 190 192 195 205 211 203 209 212 214 221 220 220 223 232 234 230 217 216 217 222 225 222 227 226
354 359 5 7 359 351 355 359 3 6 14 14 17 27 79 149 154 159 169 172 178 184 181 182 201 203 205 208 211 216 220 218 217 218 230 236 239 236 224 218 214 222 222 231 230
354 356 1 9 6 355 353 357 360 2 12 16 19 24 93 130 150 158 161 169 175 167 171 180 196 194 201 208 210 213 221 219 216 217 231 236 229 234 235 228 220 214 223 226 228
354 356 359 8 10 1 354 356 357 1 11 18 22 32 95 127 147 158 164 168 168 165 165 170 181 188 196 204 209 213 218 219 219 223 228 237 231 230 233 237 234 224 216 218 225
356 356 1 7 12 7 359 357 359 1 10 19 25 32 78 129 143 158 162 168 175 176 183 190 196 198 197 199 204 210 216 219 219 222 230 235 240 230 236 237 240 236 214 214 220
354 355 359 6 12 16 7 359 358 1 10 22 28 34 59 116 149 157 166 169 174 174 170 191 191 196 198 199 204 209 217 218 221 227 227 227 235 223 243 247 241 239 236 227 227
354 353 359 5 11 16 18 10 360 360 5 15 30 38 44 109 149 161 170 171 174 183 187 188 185 184 196 200 203 210 216 221 225 224 222 220 221 197 222 238 240 237 230 240 246
351 350 356 3 11 16 22 18 5 358 6 14 25 45 48 70 152 167 174 177 175 174 181 187 195 199 197 195 206 213 219 228 230 231 231 224 219 215 226 233 237 239 242 234 234
345 347 351 358 5 10 19 26 18 1 1 8 13 27 60 66 154 165 165 176 195 204 198 213 218 218 215 215 210 215 219 228 234 233 235 233 230 237 235 240 242 241 245 244 237
340 342 347 352 358 3 9 21 26 12 356 357 1 2 14 94 126 174 168 171 177 194 213 211 212 217 226 231 229 225 220 227 232 236 230 230 231 238 245 244 248 245 246 249 247
339 340 344 348 353 357 1 14 24 24 1 342 332 333 310 276 170 180 201 212 225 224 219 207 212 227 227 226 225 227 232 238 238 239 242 241 242 236 230 254 252 251 249 251 252
338 335 341 344 350 351 354 3 13 23 12 345 314 294 282 269 256 228 213 220 223 222 218 219 231 231 227 229 237 236 238 239 232 233 242 256 232 236 232 260 271 259 252 251 249
336 333 335 338 345 347 348 360 12 19 16 9 342 294 267 262 258 248 239 232 227 228 227 229 235 239 239 238 243 247 241 240 238 241 243 257 241 249 247 259 276 270 253 247 241
332 331 332 334 339 344 345 353 3 10 11 7 357 329 269 256 252 248 243 236 231 232 237 240 237 236 240 245 244 245 241 237 237 244 247 241 241 252 251 244 264 257 244 242 237
329 330 331 331 336 340 342 344 350 357 358 356 342 329 270 250 247 247 242 236 230 230 232 226 227 231 235 238 243 248 246 245 236 241 242 248 247 253 246 252 254 256 240 238 238
328 327 328 331 336 339 340 340 344 347 350 349 339 308 279 248 246 237 239 239 238 233 232 231 228 226 230 238 240 243 244 245 248 250 244 252 244 264 250 258 254 249 243 239 238
325 324 328 331 334 339 339 337 338 338 345 343 337 322 284 258 243 240 235 236 238 238 238 236 233 234 239 249 252 247 253 253 252 254 256 248 260 250 248 250 257 251 250 244 248
Height
5697 5683 5670 5659 5644 5630 5613 5596 5581 5574 5571 5570 5570 5573 5578 5589 5597 5607 5621 5629 5635 5647 5657 5669 5680 5691 5699 5709 5718 5726 5733 5743 5752 5762 5770 5774 5782 5790 5798 5806 5812 5819 5826 5832 5836
5695 5682 5669 5657 5644 5630 5614 5597 5583 5574 5569 5567 5568 5570 5573 5583 5591 5597 5610 5621 5631 5642 5651 5663 5675 5685 5694 5703 5711 5718 5730 5739 5745 5755 5760 5767 5776 5784 5794 5798 5805 5812 5818 5825 5832
5692 5681 5670 5657 5644 5630 5615 5600 5587 5573 5567 5565 5565 5566 5568 5574 5583 5589 5603 5615 5625 5636 5646 5657 5670 5680 5689 5698 5707 5717 5727 5731 5738 5746 5754 5763 5768 5777 5785 5792 5798 5806 5814 5821 5825
5693 5681 5670 5657 5645 5632 5618 5603 5590 5577 5566 5562 5561 5561 5563 5568 5577 5584 5596 5606 5619 5630 5640 5652 5665 5676 5685 5694 5702 5712 5718 5724 5733 5742 5750 5759 5764 5770 5779 5786 5793 5802 5809 5818 5822
5693 5680 5670 5658 5646 5634 5620 5606 5592 5579 5566 5558 5557 5557 5557 5561 5568 5580 5592 5602 5615 5626 5636 5650 5662 5673 5681 5691 5699 5705 5712 5719 5727 5735 5741 5751 5759 5764 5773 5778 5787 5796 5804 5811 5818
5694 5681 5670 5660 5648 5636 5622 5608 5594 5580 5568 5558 5554 5554 5554 5556 5563 5575 5586 5600 5613 5624 5633 5645 5658 5668 5677 5687 5695 5700 5706 5714 5722 5731 5735 5746 5755 5758 5768 5774 5780 5790 5798 5805 5812
5697 5682 5671 5660 5650 5638 5625 5611 5597 5583 5571 5562 5556 5553 5553 5555 5558 5570 5584 5599 5612 5622 5634 5643 5654 5665 5675 5683 5689 5696 5704 5710 5718 5727 5732 5740 5746 5755 5762 5766 5774 5782 5790 5798 5805
5698 5684 5672 5662 5652 5641 5629 5616 5603 5590 5576 5566 5560 5555 5554 5554 5560 5569 5583 5599 5611 5621 5633 5643 5652 5662 5671 5680 5686 5691 5699 5706 5714 5721 5728 5735 5742 5754 5754 5760 5766 5773 5782 5790 5798
5699 5685 5675 5664 5654 5644 5633 5621 5609 5598 5584 5572 5565 5560 5557 5557 5563 5571 5583 5599 5610 5620 5632 5643 5651 5661 5670 5677 5684 5688 5697 5704 5710 5716 5721 5729 5736 5743 5750 5753 5760 5766 5773 5780 5788
5701 5690 5678 5667 5656 5647 5637 5627 5616 5605 5591 5579 5569 5566 5563 5564 5569 5576 5587 5600 5610 5622 5632 5642 5650 5659 5668 5676 5682 5688 5694 5701 5707 5714 5718 5722 5727 5735 5740 5748 5754 5758 5765 5771 5779
5703 5691 5681 5670 5659 5650 5642 5633 5624 5613 5597 5586 5575 5568 5566 5571 5576 5583 5592 5602 5612 5624 5636 5646 5652 5661 5670 5676 5681 5687 5694 5700 5704 5710 5712 5717 5718 5726 5730 5739 5746 5752 5759 5764 5771
5705 5693 5683 5673 5662 5653 5645 5637 5629 5620 5607 5595 5582 5575 5572 5576 5583 5588 5597 5607 5616 5627 5638 5645 5654 5661 5667 5673 5679 5685 5691 5698 5701 5704 5708 5711 5715 5719 5728 5736 5742 5747 5753 5758 5763
5708 5696 5685 5675 5665 5656 5647 5641 5634 5626 5615 5604 5592 5582 5580 5583 5591 5596 5603 5612 5620 5631 5639 5647 5655 5659 5665 5672 5678 5684 5690 5695 5698 5701 5703 5708 5714 5720 5726 5728 5735 5742 5747 5752 5758
5709 5699 5689 5677 5669 5658 5651 5644 5638 5632 5623 5614 5603 5593 5591 5593 5600 5605 5610 5618 5625 5634 5641 5647 5653 5660 5664 5670 5677 5683 5688 5691 5693 5697 5701 5705 5711 5716 5719 5724 5730 5739 5745 5750 5755
5710 5701 5691 5679 5670 5661 5653 5646 5641 5636 5630 5623 5614 5604 5602 5605 5610 5615 5618 5624 5631 5637 5644 5650 5655 5660 5665 5671 5675 5681 5686 5689 5691 5693 5697 5702 5705 5714 5716 5724 5732 5733 5739 5743 5747
5711 5703 5694 5683 5674 5664 5656 5650 5644 5641 5635 5629 5623 5617 5614 5615 5617 5621 5626 5630 5636 5640 5645 5651 5656 5659 5664 5668 5673 5677 5683 5687 5689 5692 5695 5700 5701 5708 5711 5718 5722 5725 5727 5732 5737
5711 5704 5695 5686 5677 5668 5660 5653 5648 5642 5640 5636 5631 5627 5623 5623 5625 5626 5630 5634 5638 5642 5646 5651 5655 5660 5663 5667 5671 5676 5680 5683 5687 5688 5689 5696 5698 5704 5707 5709 5712 5716 5721 5724 5727
5710 5704 5697 5688 5678 5669 5663 5655 5650 5645 5643 5641 5637 5633 5630 5628 5630 5632 5635 5639 5642 5645 5649 5653 5656 5659 5664 5667 5672 5675 5678 5681 5683 5685 5688 5692 5692 5700 5703 5705 5707 5709 5711 5716 5721
5709 5702 5696 5688 5680 5672 5666 5658 5652 5648 5645 5644 5641 5640 5637 5634 5635 5637 5638 5642 5645 5648 5651 5652 5655 5658 5662 5666 5669 5671 5672 5676 5680 5683 5685 5688 5692 5695 5698 5699 5700 5703 5704 5708 5711
5708 5701 5695 5688 5680 5673 5667 5660 5654 5648 5645 5645 5644 5643 5642 5639 5639 5640 5641 5643 5645 5648 5649 5651 5653 5655 5658 5661 5664 5667 5672 5673 5674 5676 5678 5682 5686 5690 5692 5693 5692 5693 5695 5696 5701
5706 5699 5693 5687 5680 5672 5666 5659 5654 5649 5645 5644 5643 5643 5643 5643 5641 5641 5643 5643 5643 5645 5647 5648 5651 5653 5655 5658 5660 5664 5666 5668 5671 5671 5673 5674 5680 5684 5685 5686 5687 5686 5687 5689 5692
5703 5698 5691 5685 5680 5671 5665 5658 5654 5650 5646 5643 5641 5641 5640 5641 5640 5639 5639 5639 5639 5639 5642 5644 5646 5648 5651 5653 5655 5657 5659 5660 5662 5665 5668 5670 5675 5677 5681 5682 5680 5679 5680 5681 5683
5701 5695 5689 5683 5677 5670 5663 5657 5652 5648 5646 5642 5639 5637 5635 5636 5636 5635 5635 5634 5635 5635 5636 5638 5641 5642 5644 5646 5648 5649 5652 5656 5658 5660 5664 5664 5669 5672 5675 5675 5673 5673 5674 5674 5677
5698 5692 5687 5679 5674 5669 5662 5655 5650 5647 5643 5640 5637 5631 5630 5630 5629 5628 5628 5629 5630 5631 5631 5631 5633 5636 5638 5640 5642 5642 5645 5647 5650 5651 5655 5657 5660 5664 5667 5668 5667 5666 5668 5669 5671
5693 5689 5683 5676 5671 5665 5658 5650 5646 5642 5639 5633 5628 5623 5619 5619 5619 5621 5620 5622 5624 5625 5626 5627 5628 5631 5633 5635 5636 5637 5638 5639 5641 5646 5647 5652 5654 5656 5658 5659 5659 5661 5663 5664 5664
5688 5684 5679 5673 5666 5661 5653 5645 5641 5635 5632 5626 5621 5615 5610 5609 5609 5609 5611 5614 5615 5618 5621 5622 5623 5625 5627 5628 5630 5631 5633 5634 5637 5639 5640 5643 5647 5648 5650 5651 5652 5653 5655 5657 5658
5682 5678 5674 5668 5661 5655 5648 5639 5635 5629 5627 5616 5610 5604 5599 5596 5595 5599 5602 5605 5607 5610 5612 5615 5617 5619 5621 5622 5623 5624 5631 5630 5632 5634 5635 5635 5639 5640 5641 5643 5644 5644 5646 5648 5649